Regional Weather Roundup
Issued by NWS

Home | Current Version | Previous Version | Graphics & Text | Print | Product List | Glossary On
Versions: 1 2 3 4 5 6 7 8 9 10 11 12 13 14 15 16 17 18 19 20 21 22 23 24 25 26 27 28 29 30 31 32 33 34 35 36 37 38 39 40 41 42 43 44 45 46 47 48 49 50
000
ASUS43 KLSX 192259
RWRMO

WEATHER SUMMARY FOR MISSOURI
NATIONAL WEATHER SERVICE SPRINGFIELD MO
600 PM CDT TUE AUG 19 2014

NOTE: "FAIR" INDICATES FEW OR NO CLOUDS BELOW 12,000 FEET WITH NO
       SIGNIFICANT WEATHER AND/OR OBSTRUCTIONS TO VISIBILITY.
       CURRENT SKY AND/OR WEATHER CONDITIONS ARE NOT AVAILABLE FOR
       CHILLICOTHE AND FARMINGTON.

MOZ001>031-035>038-043-044-053-054-200000-
...NORTHERN AND WESTERN MISSOURI...

CITY           SKY/WX    TMP DP  RH WIND       PRES   REMARKS
KANSAS CTY INT MOSUNNY   90  72  55 W3        29.80F HX  97
KANSAS C DTWN  SUNNY     93  70  46 W7        29.78S HX  99
LEE`S SUMMIT   SUNNY     91  69  48 SW8       29.80F HX  96
ST JOSEPH      SUNNY     87  74  64 SW5       29.79F HX  95
CHILLICOTHE      N/A     89  73  59 CALM      29.80F HX  97

$$
MOZ066>068-077>081-088>096-101>105-200000-
...SOUTHWEST MISSOURI...

CITY           SKY/WX    TMP DP  RH WIND       PRES   REMARKS
SPRINGFIELD    MOSUNNY   96  62  32 SW14G20   29.83F HX  97
JOPLIN         SUNNY     94  65  38 SW14      29.83S HX  96

$$
MOZ032>034-039>042-045>050-055>058-069>072-200000-
...CENTRAL MISSOURI...

CITY           SKY/WX    TMP DP  RH WIND       PRES   REMARKS
COLUMBIA       SUNNY     88  69  53 W6        29.81F HX  92
JEFFERSON CITY SUNNY     90  68  48 W5        29.79F HX  94
ROLLA          SUNNY     88  66  48 SW7       29.81F HX  90
SEDALIA        SUNNY     88  71  57 SW9       29.82S HX  94
OSAGE BEACH    SUNNY     91  68  46 CALM      29.80F HX  95

$$
MOZ051-052-059>065-200000-
...EAST CENTRAL MISSOURI...

CITY           SKY/WX    TMP DP  RH WIND       PRES   REMARKS
ST LOUIS INTL  MOSUNNY   89  70  53 W9        29.80S HX  94
SPIRIT OF STL  SUNNY     87  72  60 W6        29.78F HX  93
ST CHARLES     SUNNY     86  72  62 W6        29.78S HX  92

$$
MOZ072>076-082>087-097>100-106>115-200000-
...SOUTH CENTRAL AND SOUTHEAST MISSOURI...

CITY           SKY/WX    TMP DP  RH WIND       PRES   REMARKS
CAPE GIRARDEAU CLOUDY    75  70  84 SW3       29.82R THUNDER HAZE
FARMINGTON     MOSUNNY   86  73  66 S7        29.84R HX  93
POPLAR BLUFF   SUNNY     90  74  59 S8        29.79R HX  99
WEST PLAINS    SUNNY     93  65  39 W5        29.85F HX  95

$$


USA.gov is the U.S. government's official web portal to all federal, state and local government web resources and services.